Wind_Speed
20 20 20 20 20 20 19 19 19 20 20 19 20 19 19 20 19 19 18 16 15 15 16 16 16 16 16 15 15 15 14 13 13 13 13 12 11 11 11 11 12 13 13 14
21 21 21 22 21 21 20 19 19 21 21 21 21 21 21 21 20 19 19 18 17 17 17 17 17 17 17 16 16 16 15 15 15 14 14 13 13 13 13 12 13 13 14 14
22 23 22 22 22 21 20 20 20 21 21 21 21 20 20 20 20 19 19 19 19 18 17 18 19 19 18 17 17 17 16 16 15 15 14 14 14 14 14 14 14 13 13 13
23 23 22 21 21 20 20 20 20 21 20 20 21 20 19 19 19 19 19 20 20 19 18 18 19 19 18 17 17 17 16 16 16 16 15 14 14 15 15 15 15 14 14 14
23 23 22 22 21 21 20 20 19 20 20 20 20 20 19 20 19 18 19 19 19 19 19 18 17 18 18 17 17 16 17 17 17 18 17 16 16 16 16 16 16 15 16 16
23 23 22 22 22 21 21 20 20 19 20 21 20 20 19 19 18 18 18 18 19 19 19 18 18 18 19 19 18 17 17 18 18 18 18 18 17 17 17 17 17 17 17 17
23 23 22 22 22 22 21 20 19 19 20 21 21 21 20 18 18 17 17 18 18 18 19 19 19 20 20 20 19 19 19 19 19 19 19 19 19 18 18 18 18 19 19 18
22 23 23 22 22 22 21 20 20 20 20 20 21 22 20 18 18 18 18 19 19 19 19 20 21 21 21 21 21 21 21 20 21 21 21 21 20 20 19 19 19 19 19 19
23 23 23 23 23 23 22 22 21 21 21 20 21 21 19 19 18 18 18 19 19 20 20 20 21 22 22 22 23 23 22 22 21 22 22 22 21 21 21 20 20 20 20 20
24 24 24 23 23 23 23 22 22 22 21 21 21 21 20 19 18 18 19 19 20 20 20 21 21 21 22 23 23 23 23 23 23 23 23 22 22 21 21 21 21 21 21 21
23 24 24 24 24 23 24 24 24 24 23 22 20 21 21 21 20 20 20 21 21 21 21 21 22 22 22 23 23 24 23 24 24 24 24 23 22 22 22 22 21 21 21 21
24 24 25 25 25 25 25 25 24 24 25 24 23 24 24 22 21 20 21 21 21 22 22 22 22 23 23 24 24 24 25 25 25 24 24 23 23 22 22 22 21 21 21 21
24 25 25 25 25 25 25 25 25 25 25 25 24 24 25 22 21 21 21 22 22 22 22 23 23 23 23 24 24 24 24 24 24 24 23 23 23 22 22 22 22 22 22 22
24 24 24 24 24 26 25 25 25 24 24 24 23 24 24 22 20 21 21 22 22 22 23 23 23 23 23 23 23 23 23 24 24 24 24 24 23 23 23 23 24 23 23 22
24 24 24 24 24 25 25 25 25 25 25 24 24 25 24 23 21 21 21 21 22 22 23 23 23 23 23 24 24 24 24 25 25 24 24 24 24 24 23 24 24 23 23 22
23 24 24 24 24 24 25 25 25 25 25 24 24 24 24 23 22 22 22 22 22 22 23 23 23 23 24 24 25 25 25 26 25 25 25 24 24 24 23 23 23 23 22 22
23 24 24 23 24 24 25 25 25 25 25 24 24 24 23 23 23 23 23 23 23 23 23 24 24 24 25 25 26 26 25 24 24 25 25 25 24 24 23 22 23 23 23 23
23 23 23 23 23 25 25 25 25 25 25 24 24 24 23 22 22 22 22 22 22 23 23 24 24 24 24 25 25 25 24 25 25 25 26 25 24 23 22 22 22 22 23 22
22 22 23 23 23 24 24 23 23 24 24 24 24 23 22 21 21 21 21 22 22 22 23 23 24 24 23 23 24 25 25 25 25 25 25 24 24 24 24 24 23 22 22 22
21 21 22 22 22 23 23 22 22 22 24 23 22 22 22 21 21 20 21 21 21 22 23 23 24 24 24 24 24 24 24 24 25 25 25 25 25 25 25 25 25 23 22 22
22 21 21 21 22 22 22 21 21 23 23 23 22 22 21 21 21 21 21 21 21 22 22 23 23 24 24 24 24 25 25 25 26 26 26 26 26 26 26 25 25 25 24 23
21 21 20 21 21 21 21 21 22 23 23 23 22 21 21 21 22 21 21 21 21 21 22 22 22 23 23 24 24 24 25 25 26 26 27 27 27 26 26 26 26 25 25 24
20 21 21 21 22 21 21 22 22 22 22 23 22 22 22 22 22 22 21 21 21 21 22 22 22 22 23 24 24 25 25 26 26 26 26 27 26 26 26 25 25 25 25 24
19 20 22 22 21 21 22 22 22 22 22 22 22 23 22 21 22 22 22 22 22 22 23 23 23 23 23 24 25 25 25 25 26 26 26 26 26 26 26 25 24 25 25 24
19 19 21 21 21 21 21 21 21 22 22 22 22 22 22 21 22 22 22 23 23 22 22 23 23 24 24 25 25 25 26 25 25 25 25 24 24 25 24 24 24 24 24 24
18 19 20 20 20 20 20 21 21 22 22 22 23 23 23 23 23 23 23 23 23 23 22 22 22 22 23 24 24 25 24 24 24 24 24 24 24 24 23 23 23 23 23 23
Wind_Direction
246 246 247 249 250 250 252 252 252 254 258 258 259 260 262 263 265 265 265 265 265 263 263 261 259 255 252 252 257 260 262 266 271 274 276 281 284 285 283 282 279 276 275 272
245 247 248 249 249 249 250 252 254 256 259 259 259 260 262 264 265 264 263 264 264 263 259 259 260 256 253 252 252 256 261 266 269 274 279 280 282 284 283 284 283 279 275 274
246 248 249 249 249 250 250 251 253 256 259 259 260 262 263 263 263 262 261 262 262 262 258 256 258 259 254 251 253 255 259 264 269 273 277 278 280 282 282 283 282 280 278 275
245 246 246 247 248 249 250 251 252 254 258 258 260 261 261 263 262 262 262 261 261 260 257 256 255 255 253 252 252 254 259 262 268 272 275 279 281 283 282 282 280 279 278 277
246 246 246 247 247 248 249 251 252 255 257 257 260 262 263 265 264 263 262 261 261 259 257 257 253 250 252 253 255 258 261 261 266 271 275 280 282 283 281 280 279 277 277 276
245 246 246 247 247 247 249 252 255 258 259 259 261 263 265 266 266 263 260 258 258 257 257 254 251 249 250 253 255 259 263 264 267 271 274 278 279 281 279 279 278 278 276 273
245 246 246 246 247 248 250 253 256 257 258 261 263 264 266 267 263 260 259 258 257 256 256 255 253 251 250 252 255 258 262 266 268 270 272 275 277 279 279 279 278 277 276 273
246 246 245 247 248 249 252 252 251 253 257 262 265 265 267 267 263 261 260 259 258 259 259 256 253 251 252 254 257 259 261 265 267 268 270 273 275 277 277 277 278 276 275 273
243 245 246 248 249 249 250 250 251 254 258 262 264 267 268 267 263 260 261 260 259 260 260 257 253 252 253 255 258 261 261 264 267 268 270 273 274 276 276 275 275 276 275 274
243 245 247 248 248 248 248 251 251 252 257 261 265 267 267 267 264 260 260 261 261 261 260 256 254 253 254 256 259 260 260 263 266 268 269 272 273 274 274 274 275 276 276 274
245 245 248 248 247 249 249 251 252 253 256 259 265 267 266 266 264 260 258 257 259 259 258 255 253 253 254 256 258 259 259 261 264 267 269 271 271 274 275 275 275 276 277 276
245 246 248 250 251 250 250 251 253 254 257 261 264 268 268 267 262 259 258 256 257 257 257 255 254 254 255 257 258 260 260 260 263 265 267 269 269 272 274 275 275 276 276 277
245 246 249 252 251 249 249 249 251 253 257 260 263 267 268 266 260 258 257 256 255 256 256 256 256 256 256 257 257 260 261 259 260 263 267 268 269 271 272 274 274 276 276 276
246 247 247 246 249 250 248 249 251 252 255 258 260 263 265 264 261 260 259 256 255 257 257 256 257 257 256 256 258 260 262 261 260 263 266 268 269 269 271 273 273 275 276 276
248 249 248 245 246 248 250 250 252 254 255 259 261 264 266 264 261 261 260 257 257 256 256 256 256 257 258 258 260 262 261 262 262 262 264 267 268 269 270 271 272 275 276 275
248 249 248 247 246 248 249 250 251 254 257 258 261 265 266 264 263 262 258 257 258 257 256 257 257 258 259 261 262 263 262 262 261 262 264 266 267 268 271 271 272 273 275 274
247 249 248 248 248 249 249 249 251 254 254 256 259 262 266 268 266 263 260 258 257 258 259 259 260 260 261 261 262 263 263 264 264 263 264 265 265 268 269 271 272 273 274 274
249 249 249 249 250 250 249 250 250 252 253 255 259 262 265 268 269 265 263 261 257 258 260 261 261 263 263 263 262 261 262 262 262 263 264 264 265 266 268 271 275 275 274 273
249 249 249 249 251 252 251 251 250 252 252 253 256 260 264 268 267 264 263 263 259 259 260 262 262 261 262 262 261 261 262 263 263 264 264 262 263 265 267 268 272 276 275 273
250 249 248 250 249 252 251 252 251 251 251 252 256 259 263 266 265 264 264 262 260 261 262 262 262 261 261 262 261 262 263 263 263 265 265 264 264 265 267 268 270 271 274 271
251 249 248 249 249 251 253 251 250 250 252 254 256 259 262 263 264 266 265 264 263 263 264 263 262 262 262 262 262 264 265 263 262 263 264 264 264 265 266 269 271 271 272 271
251 250 248 248 248 251 252 251 250 251 253 255 257 259 262 263 265 266 266 266 263 263 264 264 263 262 262 261 262 263 264 263 261 262 263 264 264 264 266 268 268 270 271 271
250 250 248 248 249 251 252 252 251 253 254 256 259 261 264 265 264 264 265 265 263 263 263 262 263 263 262 260 261 261 261 261 262 263 263 263 263 263 266 265 266 267 269 270
251 250 248 248 249 251 252 253 253 253 255 256 259 262 265 266 266 266 265 264 264 264 262 261 262 262 261 260 260 262 262 262 262 263 262 262 263 263 264 264 266 267 269 269
252 252 251 251 252 251 250 252 253 254 255 256 259 261 264 266 267 268 268 267 266 264 262 261 261 259 259 259 260 261 261 261 261 261 262 262 265 265 265 266 268 269 270 268
252 252 251 250 251 251 252 252 254 256 256 257 259 261 262 264 266 268 269 267 267 266 263 261 260 260 259 258 257 259 260 261 261 261 261 263 264 267 268 268 269 271 272 271
Height
5850 5853 5854 5856 5857 5859 5860 5862 5863 5863 5863 5864 5864 5865 5865 5864 5865 5865 5865 5865 5865 5865 5865 5865 5865 5865 5865 5866 5867 5867 5867 5867 5867 5866 5866 5865 5864 5863 5863 5862 5861 5861 5860 5860
5847 5848 5850 5851 5852 5853 5855 5857 5858 5858 5859 5859 5859 5860 5860 5860 5860 5860 5860 5860 5861 5861 5861 5861 5861 5861 5862 5862 5863 5864 5864 5864 5864 5863 5862 5862 5861 5861 5860 5859 5858 5857 5857 5857
5842 5844 5844 5846 5847 5848 5850 5852 5853 5853 5854 5854 5855 5855 5855 5855 5855 5855 5855 5856 5856 5856 5857 5857 5857 5857 5858 5859 5860 5860 5860 5860 5860 5860 5859 5859 5858 5858 5857 5856 5855 5855 5854 5853
5836 5837 5839 5840 5842 5844 5845 5847 5848 5848 5849 5850 5850 5851 5851 5850 5850 5850 5850 5851 5851 5852 5852 5852 5853 5853 5854 5855 5856 5856 5857 5857 5857 5856 5856 5855 5855 5854 5854 5853 5852 5851 5851 5850
5831 5832 5834 5835 5837 5839 5841 5842 5843 5844 5844 5845 5845 5846 5848 5846 5846 5846 5845 5846 5846 5847 5847 5848 5848 5849 5850 5851 5852 5852 5853 5853 5853 5853 5852 5852 5851 5851 5850 5849 5848 5847 5847 5846
5825 5827 5829 5831 5832 5834 5836 5837 5838 5839 5840 5840 5841 5841 5842 5842 5841 5841 5841 5841 5841 5842 5842 5843 5844 5844 5845 5847 5847 5848 5848 5849 5849 5848 5848 5848 5847 5846 5846 5845 5844 5843 5842 5842
5820 5822 5823 5825 5827 5829 5830 5833 5835 5835 5835 5836 5836 5836 5837 5837 5836 5836 5836 5836 5836 5837 5837 5838 5839 5840 5841 5842 5843 5843 5844 5844 5844 5844 5844 5843 5843 5842 5841 5840 5839 5838 5837 5837
5815 5817 5818 5820 5822 5824 5825 5828 5830 5831 5832 5832 5830 5830 5832 5831 5831 5831 5831 5831 5831 5832 5832 5833 5834 5835 5836 5837 5838 5838 5839 5839 5839 5839 5839 5839 5838 5837 5836 5835 5834 5833 5832 5832
5810 5812 5813 5814 5816 5818 5820 5821 5824 5825 5825 5826 5825 5825 5826 5825 5825 5825 5825 5826 5826 5827 5827 5828 5828 5829 5831 5832 5832 5833 5833 5834 5834 5834 5833 5833 5832 5832 5831 5830 5829 5828 5827 5826
5803 5805 5806 5808 5810 5812 5814 5816 5818 5819 5819 5820 5821 5820 5821 5820 5820 5820 5820 5820 5820 5821 5821 5822 5822 5823 5825 5825 5826 5827 5827 5828 5828 5828 5828 5827 5827 5826 5825 5824 5824 5823 5821 5821
5797 5799 5801 5802 5804 5806 5808 5810 5811 5812 5814 5815 5815 5817 5814 5814 5814 5814 5814 5814 5814 5815 5815 5816 5817 5818 5819 5819 5820 5820 5821 5822 5822 5822 5822 5821 5821 5821 5820 5819 5818 5817 5816 5815
5790 5792 5794 5796 5798 5800 5801 5803 5805 5806 5807 5807 5809 5811 5807 5808 5808 5808 5808 5808 5809 5809 5810 5810 5811 5812 5812 5813 5813 5814 5814 5815 5815 5815 5815 5815 5815 5815 5814 5813 5812 5811 5811 5810
5783 5785 5788 5789 5792 5792 5793 5795 5797 5799 5800 5800 5802 5804 5800 5801 5801 5801 5802 5802 5802 5803 5803 5804 5805 5805 5806 5807 5807 5807 5807 5808 5808 5808 5808 5809 5808 5808 5808 5807 5806 5805 5805 5804
5776 5778 5781 5784 5785 5785 5786 5788 5790 5792 5792 5793 5795 5795 5794 5794 5795 5795 5795 5796 5796 5797 5797 5798 5798 5799 5800 5800 5801 5801 5801 5801 5801 5802 5802 5802 5802 5802 5801 5801 5800 5799 5798 5797
5769 5771 5773 5775 5776 5778 5780 5781 5783 5784 5786 5787 5788 5787 5787 5787 5788 5788 5789 5789 5790 5790 5791 5791 5792 5793 5793 5794 5794 5794 5795 5795 5795 5795 5796 5796 5796 5795 5794 5794 5793 5792 5791 5790
5762 5764 5766 5768 5769 5771 5772 5774 5776 5778 5779 5780 5780 5780 5780 5780 5781 5781 5782 5783 5783 5783 5784 5785 5786 5786 5787 5787 5787 5788 5788 5788 5788 5788 5789 5789 5789 5788 5788 5786 5786 5785 5784 5783
5756 5758 5759 5761 5762 5763 5765 5767 5769 5771 5772 5773 5773 5774 5773 5774 5774 5774 5775 5775 5776 5777 5777 5778 5779 5779 5780 5780 5780 5781 5781 5781 5781 5781 5782 5782 5782 5782 5781 5780 5779 5778 5777 5776
5749 5751 5752 5754 5756 5757 5760 5760 5761 5762 5764 5765 5766 5766 5767 5767 5767 5767 5767 5768 5768 5769 5770 5771 5772 5772 5772 5772 5772 5773 5774 5774 5774 5774 5775 5775 5775 5775 5775 5774 5773 5772 5771 5770
5743 5744 5746 5748 5749 5750 5752 5753 5754 5756 5757 5758 5759 5760 5760 5760 5760 5761 5761 5761 5762 5763 5763 5764 5764 5765 5765 5765 5766 5766 5766 5767 5767 5767 5767 5768 5768 5768 5768 5768 5767 5766 5765 5764
5736 5738 5740 5741 5742 5744 5746 5746 5747 5750 5750 5752 5752 5753 5754 5754 5754 5755 5755 5755 5755 5756 5757 5757 5757 5758 5758 5758 5759 5759 5759 5760 5760 5760 5760 5761 5761 5761 5761 5760 5760 5759 5758 5758
5730 5731 5733 5734 5735 5737 5738 5740 5741 5744 5745 5745 5746 5747 5747 5747 5748 5749 5748 5748 5749 5749 5750 5750 5750 5751 5751 5752 5752 5752 5753 5753 5753 5753 5753 5753 5754 5753 5753 5753 5753 5752 5751 5751
5723 5725 5726 5728 5729 5732 5731 5733 5735 5736 5737 5738 5739 5740 5740 5741 5741 5741 5742 5742 5742 5742 5743 5743 5744 5744 5744 5745 5745 5746 5746 5746 5746 5746 5746 5746 5746 5746 5745 5745 5745 5745 5744 5744
5717 5719 5720 5722 5725 5725 5725 5727 5728 5729 5731 5731 5732 5733 5734 5734 5734 5735 5735 5735 5735 5736 5736 5737 5737 5738 5738 5738 5738 5739 5739 5738 5738 5738 5738 5738 5738 5738 5738 5738 5737 5737 5737 5736
5711 5712 5713 5715 5716 5718 5719 5720 5722 5723 5724 5725 5726 5727 5727 5727 5727 5728 5728 5728 5729 5729 5729 5730 5730 5731 5731 5731 5731 5731 5731 5731 5731 5731 5731 5731 5731 5731 5731 5731 5730 5730 5730 5729
5705 5706 5707 5708 5710 5711 5713 5714 5715 5716 5717 5718 5719 5720 5720 5721 5721 5721 5721 5721 5722 5722 5722 5723 5722 5723 5723 5723 5723 5724 5724 5724 5724 5724 5724 5724 5724 5724 5724 5723 5723 5723 5722 5722
5699 5700 5701 5703 5704 5705 5706 5707 5708 5710 5711 5712 5712 5713 5714 5714 5714 5714 5714 5714 5714 5714 5715 5715 5715 5715 5715 5715 5716 5716 5716 5716 5716 5716 5717 5717 5717 5717 5717 5716 5716 5715 5715 5714